FW9957 Weather Reports


time (UTC)temp
C
wind
direction
speed
KPH
gust
KPH
rain 1hr
cm
rain 24hr
cm
rain mn
cm
humidity
%
barometer
mb
20260906115631 23 251 0.0 0.0 0.00 0.00 0.00 99 1010.9
20260906115126 23 251 0.0 0.0 0.00 0.00 0.00 99 1010.8
20260906114619 23 248 0.0 0.0 0.00 0.00 0.00 99 1010.7
20260906114115 23 248 0.0 0.0 0.00 0.00 0.00 99 1010.8
20260906113615 23 248 0.0 0.0 0.00 0.00 0.00 99 1010.5
20260906113115 23 250 0.0 0.0 0.00 0.00 0.00 99 1010.6
20260906112614 23 249 0.0 0.0 0.00 0.00 0.00 99 1010.3
20260906112111 23 251 0.0 0.0 0.00 0.00 0.00 99 1010.6
20260906111610 23 249 0.0 0.0 0.00 0.00 0.00 99 1010.4
20260906111106 23 249 0.0 0.0 0.00 0.00 0.00 99 1010.3
20260906110605 24 248 0.0 0.0 0.00 0.00 0.00 99 1010.4
20260906110100 24 248 0.0 0.0 0.00 0.00 0.00 99 1010.2
20260906105555 24 248 0.0 0.0 0.00 0.00 0.00 99 1010.1
20260906105051 24 248 0.0 0.0 0.00 0.00 0.00 99 1010.0
20260906104549 24 248 0.0 0.0 0.00 0.00 0.00 99 1010.2
20260906104044 24 250 0.0 0.0 0.00 0.00 0.00 99 1010.0
20260906103542 24 248 0.0 0.0 0.00 0.00 0.00 99 1010.2
20260906103037 24 249 0.0 0.0 0.00 0.00 0.00 99 1010.0
20260906102531 24 249 0.0 0.0 0.00 0.00 0.00 99 1010.0
20260906102026 24 249 0.0 0.0 0.00 0.00 0.00 99 1009.8
20260906101521 24 248 0.0 0.0 0.00 0.00 0.00 99 1010.0
20260906101016 24 248 0.0 0.0 0.00 0.00 0.00 99 1010.1
20260906100512 24 248 0.0 0.0 0.00 0.00 0.00 99 1010.0
20260906100012 24 247 0.0 0.0 0.00 0.00 0.00 99 1009.9
20260906095501 24 249 0.0 0.0 0.00 0.00 0.00 99 1010.0
20260906094956 24 249 0.0 0.0 0.00 0.00 0.00 99 1009.9
20260906094455 24 248 0.0 0.0 0.00 0.00 0.00 99 1009.7
20260906093952 24 249 0.0 0.0 0.00 0.00 0.00 99 1009.7
20260906093447 24 248 0.0 0.0 0.00 0.00 0.00 99 1009.6
20260906092942 24 250 0.0 0.0 0.00 0.00 0.00 99 1009.9
20260906092441 24 250 0.0 0.0 0.00 0.00 0.00 99 1009.7
20260906091936 24 249 0.0 0.0 0.00 0.00 0.00 99 1009.7
20260906091432 24 249 0.0 0.0 0.00 0.00 0.00 99 1009.7
20260906090928 24 247 0.0 0.0 0.00 0.00 0.00 99 1009.6
20260906090423 24 250 0.0 0.0 0.00 0.00 0.00 99 1009.5
20260906085918 24 250 0.0 0.0 0.00 0.00 0.00 99 1009.4
20260906085418 24 250 0.0 0.0 0.00 0.00 0.00 99 1009.6
20260906084917 24 250 0.0 0.0 0.00 0.00 0.00 99 1009.6
20260906084412 24 248 0.0 0.0 0.00 0.00 0.00 99 1009.5
20260906083911 24 248 0.0 0.0 0.00 0.00 0.00 99 1009.3
20260906083407 24 249 0.0 0.0 0.00 0.00 0.00 99 1009.3
20260906082906 24 248 0.0 0.0 0.00 0.00 0.00 99 1009.2
20260906082401 24 248 0.0 0.0 0.00 0.00 0.00 99 1009.2
20260906081857 24 249 0.0 0.0 0.00 0.00 0.00 99 1009.0
20260906081353 24 250 0.0 0.0 0.00 0.00 0.00 99 1008.9
20260906080849 24 250 0.0 0.0 0.00 0.00 0.00 99 1008.8
20260906080345 24 249 0.0 0.0 0.00 0.00 0.00 99 1008.8
20260906075844 24 250 0.0 0.0 0.00 0.00 0.00 99 1009.0
20260906075339 24 249 0.0 0.0 0.00 0.00 0.00 99 1009.0
20260906074834 24 249 0.0 0.0 0.00 0.00 0.00 99 1009.0
20260906074334 24 249 0.0 0.0 0.00 0.00 0.00 99 1009.0
20260906073833 25 252 0.0 0.0 0.00 0.00 0.00 99 1008.8
20260906073328 25 252 0.0 0.0 0.00 0.00 0.00 99 1008.9
20260906072825 24 250 0.0 0.0 0.00 0.00 0.00 99 1008.7
20260906072320 25 249 0.0 0.0 0.00 0.00 0.00 99 1008.8
20260906071816 25 249 0.0 0.0 0.00 0.00 0.00 99 1008.8
20260906071316 25 249 0.0 0.0 0.00 0.00 0.00 99 1008.8
20260906070812 25 252 0.0 0.0 0.00 0.00 0.00 99 1008.9
20260906070308 25 252 0.0 0.0 0.00 0.00 0.00 99 1008.6
20260906065802 25 252 0.0 0.0 0.00 0.00 0.00 99 1008.9
20260906065257 25 252 0.0 0.0 0.00 0.00 0.00 99 1008.9
20260906064753 25 252 0.0 0.0 0.00 0.00 0.00 99 1009.0
20260906064249 25 252 0.0 0.0 0.00 0.00 0.00 99 1009.1
20260906063744 25 252 0.0 0.0 0.00 0.00 0.00 99 1009.1
20260906063239 25 253 0.0 0.0 0.00 0.00 0.00 99 1009.0
20260906062734 25 251 0.0 0.0 0.00 0.00 0.00 99 1009.0
20260906062233 25 250 0.0 0.0 0.00 0.00 0.00 99 1008.9
20260906061729 25 249 0.0 0.0 0.00 0.00 0.00 99 1009.0
20260906061225 25 252 0.0 0.0 0.00 0.00 0.00 99 1009.2
20260906060720 25 252 0.0 0.0 0.00 0.00 0.00 99 1009.2
20260906060218 25 252 0.0 0.0 0.00 0.00 0.00 99 1009.2
20260906055713 25 252 0.0 0.0 0.00 0.00 0.00 99 1009.1
20260906055209 25 252 0.0 0.0 0.00 0.00 0.00 99 1009.4
20260906054703 25 249 0.0 0.0 0.00 0.00 0.00 99 1009.3
20260906054158 25 249 0.0 0.0 0.00 0.00 0.00 99 1009.2
20260906053655 25 249 0.0 0.0 0.00 0.00 0.00 99 1009.2
20260906053150 25 252 0.0 0.0 0.00 0.00 0.00 99 1009.2
20260906052645 25 252 0.0 0.0 0.00 0.00 0.00 99 1009.1
20260906052142 25 254 0.0 0.0 0.00 0.00 0.00 99 1009.3
20260906051638 25 250 0.0 0.0 0.00 0.00 0.00 99 1009.3
20260906051137 25 250 0.0 0.0 0.00 0.00 0.00 99 1009.4
20260906050633 25 248 0.0 0.0 0.00 0.00 0.00 99 1009.3
20260906050128 25 250 0.0 0.0 0.00 0.00 0.00 99 1009.4
20260906045627 25 250 0.0 0.0 0.00 0.00 0.00 99 1009.5
20260906045122 25 250 0.0 0.0 0.00 0.00 0.00 99 1009.5
20260906044618 25 249 0.0 0.0 0.00 0.00 0.00 99 1009.7
20260906044113 25 250 0.0 0.0 0.00 0.00 0.00 99 1009.7
20260906043609 25 252 1.6 1.6 0.00 0.00 0.00 99 1009.6
20260906043104 25 253 0.0 0.0 0.00 0.00 0.00 99 1009.6
20260906042604 25 258 0.0 0.0 0.00 0.00 0.00 99 1009.7
20260906042058 25 254 0.0 0.0 0.00 0.00 0.00 99 1009.7
20260906041554 25 248 0.0 0.0 0.00 0.00 0.00 99 1009.6
20260906041049 25 251 0.0 0.0 0.00 0.00 0.00 98 1009.6
20260906040544 25 251 0.0 0.0 0.00 0.00 0.00 98 1009.6
20260906040040 25 251 0.0 0.0 0.00 0.00 0.00 98 1009.6
20260906035535 25 250 0.0 0.0 0.00 0.00 0.00 98 1009.5
20260906035031 25 250 0.0 0.0 0.00 0.00 0.00 98 1009.7
20260906034530 25 250 0.0 0.0 0.00 0.00 0.00 98 1009.8
20260906034025 25 250 0.0 0.0 0.00 0.00 0.00 98 1009.8
20260906033521 25 252 0.0 0.0 0.00 0.00 0.00 98 1009.7
20260906033016 25 253 0.0 0.0 0.00 0.00 0.00 98 1009.7
20260906032512 25 250 0.0 0.0 0.00 0.00 0.00 98 1009.9
20260906032007 25 253 0.0 0.0 0.00 0.00 0.00 98 1010.0
20260906031502 25 254 0.0 0.0 0.00 0.00 0.00 98 1009.8
20260906030957 25 253 0.0 0.0 0.00 0.00 0.00 98 1010.0
20260906030451 26 252 0.0 0.0 0.00 0.00 0.00 97 1009.9
20260906025946 26 252 0.0 0.0 0.00 0.00 0.00 97 1010.0
20260906025440 26 252 0.0 0.0 0.00 0.00 0.00 96 1009.8
20260906024939 26 252 0.0 0.0 0.00 0.00 0.00 96 1010.1
20260906024438 26 250 0.0 0.0 0.00 0.00 0.00 96 1009.9
20260906023933 26 247 0.0 0.0 0.00 0.00 0.00 96 1009.8
20260906023429 26 253 0.0 0.0 0.00 0.00 0.00 96 1010.1
20260906022924 26 250 0.0 0.0 0.00 0.00 0.00 95 1010.0
20260906022420 26 252 0.0 0.0 0.00 0.00 0.00 96 1009.9
20260906021915 26 252 0.0 0.0 0.00 0.00 0.00 96 1009.9
20260906021414 26 252 0.0 0.0 0.00 0.00 0.00 96 1010.0
20260906020908 26 252 0.0 0.0 0.00 0.00 0.00 96 1009.9
20260906020403 26 252 0.0 0.0 0.00 0.00 0.00 95 1010.0
20260906015858 26 254 0.0 0.0 0.00 0.00 0.00 95 1009.9
20260906015356 26 252 0.0 0.0 0.00 0.00 0.00 95 1009.9
20260906014851 26 252 0.0 0.0 0.00 0.00 0.00 95 1009.6
20260906014351 26 250 0.0 0.0 0.00 0.00 0.00 95 1009.8
20260906013847 26 248 0.0 0.0 0.00 0.00 0.00 95 1009.7
20260906013342 26 249 0.0 0.0 0.00 0.00 0.00 95 1009.6
20260906012838 26 251 0.0 0.0 0.00 0.00 0.00 95 1009.7
20260906012333 26 250 0.0 0.0 0.00 0.00 0.00 95 1009.6
20260906011832 26 250 0.0 0.0 0.00 0.00 0.00 95 1009.5
20260906011327 26 250 0.0 0.0 0.00 0.00 0.00 95 1009.3
20260906010823 26 251 0.0 0.0 0.00 0.00 0.00 95 1009.4
20260906010319 26 251 0.0 0.0 0.00 0.00 0.00 95 1009.4
20260906005814 27 251 0.0 0.0 0.00 0.00 0.00 95 1009.2
20260906005313 27 252 0.0 0.0 0.00 0.00 0.00 94 1009.3
20260906004813 27 250 0.0 0.0 0.00 0.00 0.00 94 1009.4
20260906004312 27 250 0.0 0.0 0.00 0.00 0.00 94 1009.3
20260906003808 27 249 0.0 0.0 0.00 0.00 0.00 94 1009.3
20260906003303 27 249 0.0 0.0 0.00 0.00 0.00 94 1009.3
20260906002759 27 250 0.0 0.0 0.00 0.00 0.00 94 1009.3
20260906002258 27 250 0.0 0.0 0.00 0.00 0.00 94 1009.1
20260906001754 27 250 0.0 0.0 0.00 0.00 0.00 94 1009.2
20260906001248 27 250 0.0 0.0 0.00 0.00 0.00 94 1009.4
20260906000743 27 250 0.0 0.0 0.00 0.00 0.00 94 1009.4
20260906000238 27 250 0.0 0.0 0.00 0.00 0.00 94 1009.1
20260905235733 27 250 0.0 0.0 0.00 0.00 0.00 95 1009.2
20260905235233 27 250 0.0 0.0 0.00 0.00 0.00 95 1009.3
20260905234728 27 250 0.0 0.0 0.00 0.00 0.00 95 1009.1
20260905234224 27 252 0.0 0.0 0.00 0.00 0.00 95 1009.2
20260905233719 27 253 0.0 0.0 0.00 0.00 0.00 95 1009.5
20260905233218 27 253 0.0 0.0 0.00 0.00 0.00 94 1009.4
20260905232713 27 253 0.0 0.0 0.00 0.00 0.00 94 1009.2
20260905232209 27 252 0.0 0.0 0.00 0.00 0.00 92 1009.1
20260905231705 27 252 0.0 0.0 0.00 0.00 0.00 92 1009.0
20260905231200 27 249 0.0 0.0 0.00 0.00 0.00 93 1009.2
20260905230656 27 249 0.0 0.0 0.00 0.00 0.00 93 1009.1
20260905230154 27 250 0.0 0.0 0.00 0.00 0.00 93 1008.9
20260905225653 27 251 0.0 0.0 0.00 0.00 0.00 94 1008.8
20260905225148 27 250 0.0 0.0 0.00 0.00 0.00 94 1008.9
20260905224647 26 250 0.0 0.0 0.00 0.00 0.00 94 1009.1
20260905224142 27 250 0.0 0.0 0.00 0.00 0.00 95 1009.1
20260905223639 26 251 0.0 0.0 0.00 0.00 0.00 95 1009.0
20260905223136 27 251 0.0 0.0 0.00 0.00 0.00 95 1009.2
20260905222630 26 251 0.0 0.0 0.00 0.00 0.00 95 1009.5
20260905222120 26 251 0.0 0.0 0.00 0.00 0.00 95 1009.1
20260905221616 26 251 0.0 0.0 0.00 0.00 0.00 95 1009.1
20260905221112 26 251 0.0 0.0 0.00 0.00 0.00 95 1009.2
20260905220607 26 250 0.0 0.0 0.00 0.00 0.00 95 1009.0
20260905220104 26 249 0.0 0.0 0.00 0.00 0.00 95 1009.4
20260905215603 26 250 0.0 0.0 0.00 0.00 0.00 95 1009.4
20260905215059 26 248 0.0 0.0 0.00 0.00 0.00 95 1009.7
20260905214554 26 251 0.0 0.0 0.00 0.00 0.00 95 1009.7
20260905214049 26 249 0.0 0.0 0.00 0.00 0.00 93 1009.8
20260905213544 26 252 0.0 0.0 0.00 0.00 0.00 93 1010.0
20260905213039 26 261 0.0 0.0 0.00 0.00 0.00 92 1010.3
20260905212534 26 263 3.2 3.2 0.00 0.00 0.00 92 1010.3
20260905212033 27 302 4.8 6.4 0.00 0.00 0.00 85 1010.3
20260905211529 28 249 0.0 0.0 0.00 0.00 0.00 82 1009.9
20260905211025 29 249 0.0 0.0 0.00 0.00 0.00 80 1010.1
20260905210520 30 247 0.0 0.0 0.00 0.00 0.00 80 1009.4
20260905210020 31 180 3.2 4.8 0.00 0.00 0.00 76 1009.5
20260905205514 31 194 0.0 0.0 0.00 0.00 0.00 73 1009.5
20260905205013 31 247 0.0 0.0 0.00 0.00 0.00 72 1009.3
20260905204508 32 248 0.0 0.0 0.00 0.00 0.00 72 1009.0
20260905204003 32 245 0.0 0.0 0.00 0.00 0.00 70 1009.0
20260905203458 32 246 0.0 0.0 0.00 0.00 0.00 69 1009.1
20260905202953 32 251 0.0 0.0 0.00 0.00 0.00 70 1009.3
20260905202448 32 251 0.0 0.0 0.00 0.00 0.00 69 1009.3
20260905201943 32 183 0.0 0.0 0.00 0.00 0.00 69 1009.3
20260905201438 33 233 0.0 0.0 0.00 0.00 0.00 67 1009.6
20260905200933 33 248 1.6 3.2 0.00 0.00 0.00 66 1009.5
20260905200429 32 268 0.0 1.6 0.00 0.00 0.00 67 1009.4
20260905195927 33 251 0.0 0.0 0.00 0.00 0.00 66 1009.6
20260905195422 32 285 1.6 3.2 0.00 0.00 0.00 65 1009.7
20260905194918 32 227 0.0 0.0 0.00 0.00 0.00 66 1009.9
20260905194417 32 241 1.6 1.6 0.00 0.00 0.00 68 1009.7
20260905193917 32 243 0.0 0.0 0.00 0.00 0.00 70 1009.7
20260905193412 32 182 1.6 1.6 0.00 0.00 0.00 68 1009.8
20260905192907 32 249 0.0 0.0 0.00 0.00 0.00 69 1009.8
20260905192402 33 249 0.0 0.0 0.00 0.00 0.00 67 1009.7
20260905191857 32 255 0.0 0.0 0.00 0.00 0.00 71 1010.0
20260905191356 32 253 0.0 0.0 0.00 0.00 0.00 71 1009.8
20260905190856 31 236 0.0 0.0 0.00 0.00 0.00 73 1009.9
20260905190354 32 282 0.0 0.0 0.00 0.00 0.00 72 1009.8
20260905185853 31 249 0.0 0.0 0.00 0.00 0.00 71 1010.1
20260905185343 32 182 0.0 0.0 0.00 0.00 0.00 71 1010.4
20260905184842 32 246 0.0 0.0 0.00 0.00 0.00 72 1010.5
20260905184341 32 227 0.0 0.0 0.00 0.00 0.00 73 1010.7
20260905183840 32 259 0.0 0.0 0.00 0.00 0.00 71 1010.5
20260905183335 31 252 0.0 0.0 0.00 0.00 0.00 74 1010.6
20260905182829 31 247 0.0 0.0 0.00 0.00 0.00 74 1010.8
20260905182324 31 245 0.0 0.0 0.00 0.00 0.00 72 1010.9
20260905181819 31 248 0.0 0.0 0.00 0.00 0.00 73 1010.9
20260905181319 31 249 0.0 0.0 0.00 0.00 0.00 72 1010.9
20260905180818 31 261 1.6 1.6 0.00 0.00 0.00 76 1011.2
20260905180313 30 242 0.0 0.0 0.00 0.00 0.00 77 1011.2
20260905175808 31 239 0.0 0.0 0.00 0.00 0.00 78 1011.3
20260905175306 31 252 0.0 0.0 0.00 0.00 0.00 75 1011.4
20260905174758 31 246 0.0 0.0 0.00 0.00 0.00 75 1011.4
20260905174254 30 245 0.0 0.0 0.00 0.00 0.00 76 1011.4
20260905173749 30 252 0.0 0.0 0.00 0.00 0.00 76 1011.6
20260905173245 30 239 0.0 0.0 0.00 0.00 0.00 77 1011.6
20260905172744 30 235 0.0 0.0 0.00 0.00 0.00 77 1011.6
20260905172243 30 137 0.0 1.6 0.00 0.00 0.00 76 1011.7
20260905171740 31 227 0.0 0.0 0.00 0.00 0.00 74 1011.5
20260905171236 30 250 0.0 0.0 0.00 0.00 0.00 77 1011.7
20260905170732 30 247 0.0 0.0 0.00 0.00 0.00 75 1011.6
20260905170228 30 257 0.0 0.0 0.00 0.00 0.00 75 1012.1
20260905165727 30 293 3.2 3.2 0.00 0.00 0.00 75 1012.0
20260905165222 30 248 0.0 0.0 0.00 0.00 0.00 76 1012.0
20260905164716 30 253 0.0 0.0 0.00 0.00 0.00 77 1012.0
20260905164211 30 274 1.6 3.2 0.00 0.00 0.00 75 1012.0
20260905163707 30 270 1.6 1.6 0.00 0.00 0.00 76 1012.1
20260905163203 30 253 0.0 0.0 0.00 0.00 0.00 76 1012.2
20260905162659 30 283 3.2 3.2 0.00 0.00 0.00 76 1012.4
20260905162158 30 249 0.0 0.0 0.00 0.00 0.00 78 1012.2
20260905161653 29 250 0.0 0.0 0.00 0.00 0.00 76 1012.3
20260905161151 29 264 1.6 1.6 0.00 0.00 0.00 77 1012.5
20260905160645 29 273 1.6 3.2 0.00 0.00 0.00 79 1012.5
20260905160144 28 284 3.2 3.2 0.00 0.00 0.00 79 1012.3
20260905155639 28 250 0.0 0.0 0.00 0.00 0.00 78 1012.4
20260905155137 28 255 0.0 0.0 0.00 0.00 0.00 81 1012.5
20260905154632 28 246 0.0 0.0 0.00 0.00 0.00 81 1012.4
20260905154128 28 246 1.6 1.6 0.00 0.00 0.00 83 1012.4
20260905153623 28 249 0.0 0.0 0.00 0.00 0.00 84 1012.1
20260905153119 28 250 1.6 1.6 0.00 0.00 0.00 86 1012.3
20260905152613 27 250 0.0 1.6 0.00 0.00 0.00 85 1012.0
20260905152108 27 247 0.0 0.0 0.00 0.00 0.00 86 1012.2
20260905151603 27 258 0.0 0.0 0.00 0.00 0.00 86 1012.1
20260905151058 27 262 1.6 1.6 0.00 0.00 0.00 87 1012.1
20260905150554 26 250 0.0 1.6 0.00 0.00 0.00 92 1012.2
20260905150052 26 250 0.0 0.0 0.00 0.00 0.00 99 1012.0
20260905145550 25 249 0.0 0.0 0.00 0.00 0.00 99 1012.3
20260905145049 25 251 0.0 0.0 0.00 0.00 0.00 99 1012.1
20260905144545 25 254 0.0 0.0 0.00 0.00 0.00 99 1012.1
20260905144043 25 248 0.0 0.0 0.00 0.00 0.00 99 1012.0
20260905143538 25 252 0.0 0.0 0.00 0.00 0.00 99 1012.2
20260905143033 25 253 0.0 0.0 0.00 0.00 0.00 99 1012.1
20260905142532 25 246 0.0 0.0 0.00 0.00 0.00 99 1012.1
20260905142027 25 251 0.0 0.0 0.00 0.00 0.00 99 1012.0
20260905141527 25 251 0.0 0.0 0.00 0.00 0.00 99 1012.0
20260905141023 25 254 0.0 0.0 0.00 0.00 0.00 99 1011.8
20260905140518 25 255 0.0 0.0 0.00 0.00 0.00 99 1012.0
20260905140017 25 243 0.0 0.0 0.00 0.00 0.00 99 1011.9
20260905135513 25 243 0.0 0.0 0.00 0.00 0.00 99 1011.9
20260905135008 25 243 0.0 0.0 0.00 0.00 0.00 99 1012.1
20260905134507 25 243 0.0 0.0 0.00 0.00 0.00 99 1011.9
20260905134006 25 243 0.0 0.0 0.00 0.00 0.00 99 1011.9
20260905133502 25 243 0.0 0.0 0.00 0.00 0.00 99 1012.2
20260905132955 25 243 0.0 0.0 0.00 0.00 0.00 99 1012.1
20260905132451 25 243 0.0 0.0 0.00 0.00 0.00 99 1012.1
20260905131945 25 246 0.0 0.0 0.00 0.00 0.00 99 1012.0
20260905131442 24 248 0.0 0.0 0.00 0.00 0.00 99 1011.9
20260905130941 24 250 0.0 0.0 0.00 0.00 0.00 99 1012.2
20260905130436 24 239 0.0 0.0 0.00 0.00 0.00 99 1011.9
20260905125935 24 243 0.0 0.0 0.00 0.00 0.00 99 1012.2
20260905125430 23 243 0.0 0.0 0.00 0.00 0.00 99 1012.1
20260905124926 23 243 0.0 0.0 0.00 0.00 0.00 99 1012.1
20260905124423 23 243 0.0 0.0 0.00 0.00 0.00 99 1012.4
20260905123922 23 243 0.0 0.0 0.00 0.00 0.00 99 1012.0
20260905123419 23 243 0.0 0.0 0.00 0.00 0.00 99 1012.0
20260905122914 23 243 0.0 0.0 0.00 0.00 0.00 99 1011.7
20260905122413 23 243 0.0 0.0 0.00 0.00 0.00 99 1012.0
20260905121910 23 242 0.0 0.0 0.00 0.00 0.00 99 1011.9
20260905121405 23 242 0.0 0.0 0.00 0.00 0.00 99 1012.2
20260905120904 23 241 0.0 0.0 0.00 0.00 0.00 99 1011.8
20260905120404 23 241 0.0 0.0 0.00 0.00 0.00 99 1011.9